Weather History for KCBK - May, 2013

Change the Weather History Date:

Thursday, May 16, 2013

  Actual Average (KGLD) Record (KGLD)
Temperature  
Mean Temperature 70 °F 59 °F  
Max Temperature 84 °F 73 °F 94 °F (1996)
Min Temperature 55 °F 46 °F 27 °F (1945)
Degree Days  
Heating Degree Days 0 7  
Month to date heating degree days 141  
Since 1 July heating degree days 5796  
Cooling Degree Days 4 1  
Month to date cooling degree days 14  
Year to date cooling degree days 18  
Growing Degree Days 20 (Base 50)    
Moisture  
Dew Point 54 °F    
Average Humidity 67    
Maximum Humidity 94    
Minimum Humidity 33    
Precipitation  
Precipitation 0.00 in 0.10 in 1.64 in (1947)
Month to date precipitation 1.33  
Year to date precipitation 4.86  
Snow  
Snow 0.00 in 0.00 in - ()
Month to date snowfall 0.5  
Since 1 July snowfall 35.5  
Snow Depth -    
Sea Level Pressure  
Sea Level Pressure 29.85 in    
Wind  
Wind Speed 10 mph (South)    
Max Wind Speed 23 mph    
Max Gust Speed 30 mph    
Visibility 10 miles    
Events Rain    
T = Trace of Precipitation, MM = Missing Value Source: NWS Daily Summary

Daily Weather History Graph

Daily Weather History Graph

Search for Another Location

Airport or City:

Trip Planner

Search our weather history database for the weather conditions in past years. The results will help you decide how hot, cold, wet, or windy it might be!

Date:

Astronomy

May. 16, 2013 Rise Set
Actual Time 6:29 AM CDT 8:52 PM CDT
Civil Twilight 5:58 AM CDT 9:22 PM CDT
Nautical Twilight 5:21 AM CDT 10:00 PM CDT
Astronomical Twilight 4:39 AM CDT 10:42 PM CDT
Moon 12:03 PM CDT (5/16) 1:14 AM CDT (5/16)
Length of Visible Light 15h 24m
Length of Day
14h 23m
Waxing Crescent, 36% of the Moon is Illuminated
May 16
Waxing Crescent
May 17
First Quarter
May 24
Full
May 31
Last Quarter
Jun 8
New

Hourly Weather History & Observations

Time (CDT) Temp. Dew Point Humidity Pressure Visibility Wind Dir Wind Speed Gust Speed Precip Events Conditions
12:15 AM 64.4 °F 53.6 °F 68% 29.87 in 10.0 mi South 10.4 mph - N/A   Clear
12:35 AM 62.6 °F 53.6 °F 72% 29.88 in 10.0 mi South 10.4 mph - N/A   Clear
12:55 AM 62.6 °F 53.6 °F 72% 29.88 in 10.0 mi South 10.4 mph - N/A   Clear
1:15 AM 60.8 °F 53.6 °F 77% 29.89 in 10.0 mi SSW 9.2 mph - N/A   Clear
1:35 AM 62.6 °F 53.6 °F 72% 29.87 in 10.0 mi South 10.4 mph 16.1 mph N/A   Clear
1:55 AM 64.4 °F 55.4 °F 73% 29.87 in 10.0 mi South 12.7 mph - N/A   Clear
2:15 AM 64.4 °F 55.4 °F 73% 29.86 in 10.0 mi SSW 11.5 mph - N/A   Clear
2:35 AM 62.6 °F 53.6 °F 72% 29.86 in 10.0 mi SSW 8.1 mph - N/A   Clear
2:55 AM 62.6 °F 53.6 °F 72% 29.86 in 10.0 mi South 6.9 mph - N/A   Clear
3:15 AM 62.6 °F 51.8 °F 68% 29.86 in 10.0 mi SSW 5.8 mph - N/A   Clear
3:35 AM 60.8 °F 51.8 °F 72% 29.86 in 10.0 mi South 5.8 mph - N/A   Clear
3:55 AM 59.0 °F 51.8 °F 77% 29.86 in 10.0 mi South 4.6 mph - N/A   Clear
4:15 AM 59.0 °F 51.8 °F 77% 29.86 in 10.0 mi South 3.5 mph - N/A   Clear
4:35 AM 59.0 °F 51.8 °F 77% 29.85 in 10.0 mi SW 5.8 mph - N/A   Clear
4:55 AM 55.4 °F 51.8 °F 88% 29.84 in 10.0 mi WSW 6.9 mph - N/A   Clear
5:15 AM 55.4 °F 50.0 °F 82% 29.84 in 10.0 mi WSW 6.9 mph - N/A   Clear
5:35 AM 55.4 °F 51.8 °F 88% 29.84 in 10.0 mi West 6.9 mph - N/A   Clear
5:55 AM 55.4 °F 51.8 °F 88% 29.84 in 10.0 mi West 4.6 mph - N/A   Clear
6:15 AM 57.2 °F 51.8 °F 82% 29.85 in 10.0 mi WSW 4.6 mph - N/A   Clear
6:35 AM 59.0 °F 51.8 °F 77% 29.86 in 10.0 mi WSW 6.9 mph - N/A   Clear
6:55 AM 60.8 °F 53.6 °F 77% 29.86 in 10.0 mi WSW 5.8 mph - N/A   Clear
7:15 AM 59.0 °F 53.6 °F 82% 29.87 in 10.0 mi SSW 3.5 mph - N/A   Scattered Clouds
7:35 AM 60.8 °F 53.6 °F 77% 29.87 in 10.0 mi South 3.5 mph - N/A   Mostly Cloudy
7:55 AM 60.8 °F 53.6 °F 77% 29.86 in 10.0 mi SE 4.6 mph - N/A   Overcast
8:15 AM 62.6 °F 53.6 °F 72% 29.86 in 10.0 mi SE 6.9 mph - N/A Rain Light Rain
8:35 AM 62.6 °F 55.4 °F 77% 29.88 in 10.0 mi SW 8.1 mph - N/A Rain Light Rain
8:55 AM 62.6 °F 55.4 °F 77% 29.87 in 10.0 mi WSW 5.8 mph - N/A   Mostly Cloudy
9:15 AM 64.4 °F 55.4 °F 73% 29.88 in 10.0 mi WSW 9.2 mph - N/A   Scattered Clouds
9:35 AM 68.0 °F 55.4 °F 64% 29.89 in 10.0 mi SW 10.4 mph - N/A   Mostly Cloudy
9:55 AM 68.0 °F 55.4 °F 64% 29.88 in 10.0 mi SSW 9.2 mph - N/A   Mostly Cloudy
10:15 AM 69.8 °F 57.2 °F 64% 29.89 in 10.0 mi SSW 9.2 mph - N/A   Clear
10:35 AM 71.6 °F 59.0 °F 64% 29.89 in 10.0 mi South 6.9 mph - N/A   Scattered Clouds
10:55 AM 73.4 °F 57.2 °F 57% 29.89 in 10.0 mi South 11.5 mph - N/A   Mostly Cloudy
11:15 AM 75.2 °F 55.4 °F 50% 29.89 in 10.0 mi South 10.4 mph - N/A   Mostly Cloudy
11:35 AM 77.0 °F 57.2 °F 50% 29.88 in 10.0 mi SSE 15.0 mph 19.6 mph N/A   Scattered Clouds
11:55 AM 77.0 °F 57.2 °F 50% 29.88 in 10.0 mi SSE 15.0 mph 20.7 mph N/A   Clear
12:15 PM 77.0 °F 55.4 °F 47% 29.88 in 10.0 mi South 15.0 mph 20.7 mph N/A   Clear
12:35 PM 78.8 °F 55.4 °F 44% 29.88 in 10.0 mi South 15.0 mph 21.9 mph N/A   Clear
1:15 PM 78.8 °F 53.6 °F 42% 29.87 in 10.0 mi SSE 19.6 mph 25.3 mph N/A   Scattered Clouds
1:35 PM 78.8 °F 51.8 °F 39% 29.86 in 10.0 mi South 16.1 mph 23.0 mph N/A   Scattered Clouds
1:55 PM 78.8 °F 53.6 °F 42% 29.85 in 10.0 mi SSW 15.0 mph - N/A   Scattered Clouds
2:15 PM 78.8 °F 51.8 °F 39% 29.86 in 10.0 mi SSW 17.3 mph - N/A   Clear
2:35 PM 80.6 °F 51.8 °F 37% 29.84 in 10.0 mi South 13.8 mph 23.0 mph N/A   Scattered Clouds
2:55 PM 82.4 °F 51.8 °F 35% 29.82 in 10.0 mi South 15.0 mph 28.8 mph N/A   Clear
3:15 PM 80.6 °F 50.0 °F 34% 29.80 in 10.0 mi SSE 17.3 mph 27.6 mph N/A   Scattered Clouds
3:35 PM 82.4 °F 51.8 °F 35% 29.80 in 10.0 mi SSE 23.0 mph 27.6 mph N/A   Scattered Clouds
3:55 PM 84.2 °F 51.8 °F 33% 29.80 in 10.0 mi South 19.6 mph 25.3 mph N/A   Clear
4:15 PM 82.4 °F 51.8 °F 35% 29.79 in 10.0 mi South 18.4 mph 28.8 mph N/A   Clear
4:35 PM 82.4 °F 51.8 °F 35% 29.79 in 10.0 mi SSE 18.4 mph 23.0 mph N/A   Clear
4:55 PM 80.6 °F 51.8 °F 37% 29.79 in 10.0 mi SSE 12.7 mph 24.2 mph N/A   Clear
5:15 PM 80.6 °F 51.8 °F 37% 29.79 in 10.0 mi SSE 13.8 mph - N/A   Clear
5:35 PM 78.8 °F 50.0 °F 36% 29.84 in 10.0 mi North 19.6 mph 29.9 mph N/A   Scattered Clouds
5:55 PM 68.0 °F 51.8 °F 56% 29.83 in 10.0 mi North 19.6 mph 24.2 mph N/A   Mostly Cloudy
6:15 PM 62.6 °F 55.4 °F 77% 29.84 in 10.0 mi WNW 13.8 mph 21.9 mph N/A Rain Light Rain
6:35 PM 62.6 °F 57.2 °F 82% 29.83 in 10.0 mi SW 13.8 mph 25.3 mph N/A Rain Light Rain
6:55 PM 66.2 °F 55.4 °F 68% 29.80 in 10.0 mi SSW 5.8 mph - N/A Rain Light Rain
7:15 PM 66.2 °F 55.4 °F 68% 29.80 in 10.0 mi ESE 11.5 mph - N/A Rain Light Rain
7:35 PM 62.6 °F 59.0 °F 88% 29.79 in 10.0 mi ESE 9.2 mph 18.4 mph N/A   Clear
7:55 PM 62.6 °F 59.0 °F 88% 29.79 in 10.0 mi East 11.5 mph - N/A   Clear
8:15 PM 62.6 °F 60.8 °F 94% 29.82 in 10.0 mi SE 10.4 mph - N/A   Scattered Clouds
8:35 PM 62.6 °F 59.0 °F 88% 29.82 in 10.0 mi SE 9.2 mph - N/A   Scattered Clouds
8:55 PM 62.6 °F 59.0 °F 88% 29.82 in 10.0 mi East 3.5 mph - N/A   Clear
9:15 PM 60.8 °F 59.0 °F 94% 29.83 in 10.0 mi ESE 6.9 mph - N/A   Clear
9:35 PM 60.8 °F 57.2 °F 88% 29.84 in 10.0 mi ESE 5.8 mph - N/A   Clear
9:55 PM 60.8 °F 55.4 °F 82% 29.84 in 10.0 mi SE 6.9 mph - N/A   Clear
10:15 PM 60.8 °F 55.4 °F 82% 29.84 in 10.0 mi SE 6.9 mph - N/A   Clear
10:35 PM 60.8 °F 55.4 °F 82% 29.84 in 10.0 mi SE 9.2 mph - N/A   Clear
10:55 PM 59.0 °F 55.4 °F 88% 29.85 in 10.0 mi ESE 9.2 mph - N/A   Clear
11:15 PM 59.0 °F 55.4 °F 88% 29.85 in 10.0 mi SE 8.1 mph - N/A   Clear
11:35 PM 60.8 °F 55.4 °F 82% 29.85 in 10.0 mi South 9.2 mph - N/A   Clear
11:55 PM 59.0 °F 55.4 °F 88% 29.85 in 10.0 mi NNE 3.5 mph - N/A   Clear